Regional Weather Roundup
Issued by NWS

Home | Current Version | Previous Version | Text Only | Print | Product List | Glossary Off
Versions: 1 2 3 4 5 6 7 8 9 10 11 12 13 14 15 16 17 18 19 20 21 22 23 24 25 26 27 28 29 30 31 32 33 34 35 36 37 38 39 40 41 42 43 44 45 46 47 48 49 50

000
ASUS45 KSLC 300410
RWRUT

UTAH REGIONAL WEATHER ROUNDUP
NATIONAL WEATHER SERVICE SALT LAKE CITY UT
1000 PM MDT SAT APR 29 2017

UTZ001>011-023>025-300500-

NORTHERN UTAH

CITY           SKY/WX    TMP DP  RH WIND       PRES   REMARKS
BRIGHAM CITY   CLEAR     47  35  63 CALM      30.21R
HILL AFB       CLEAR     48  25  41 CALM      30.20R
LOGAN          PTCLDY    46  34  62 SE3       30.20R
OGDEN          CLEAR     46  28  49 CALM      30.20R
SALT LAKE CITY PTCLDY    49  34  56 E5        30.21R
TOOELE VALLEY  CLEAR     36  32  87 S10       30.22R WCI  28
WENDOVER       CLEAR     52  30  43 SW6       30.21R
WEST JORDAN    CLEAR     47  36  66 CALM      30.22R

$$

UTZ011>015-024>027-300500-

CENTRAL/NORTHEAST UTAH

CITY           SKY/WX    TMP DP  RH WIND       PRES   REMARKS
PROVO AIRPORT  CLEAR     45  28  51 N7        30.21R
MOAB/CANYONLAN MOCLDY    50  18  28 NE18      30.10R
DELTA          CLEAR     41  19  42 N8        30.22R
PRICE          CLEAR     41  18  39 NE12      30.17R
ROOSEVELT      CLEAR     39  19  45 W8        30.20R WCI  34
VERNAL         CLEAR     38  17  42 NE9       30.20R WCI  31

$$

UTZ013>016-019>022-027-300500-

SOUTHERN UTAH

CITY           SKY/WX    TMP DP  RH WIND       PRES   REMARKS
BRYCE CANYON   CLEAR     36  16  44 NW5       30.20R WCI  32
CEDAR CITY     CLEAR     42  19  39 N9        30.20R
MILFORD        CLEAR     45  19  35 NW12      30.21R
ST GEORGE      PTCLDY    62  19  19 NE16G22   30.11R
HANKSVILLE     MOCLDY    50  16  25 N10       30.12R
BLANDING       CLEAR     41  15  36 N12       30.16R

$$

REGIONAL REPORTS     COLORADO/ARIZONA

CITY           SKY/WX    TMP DP  RH WIND       PRES   REMARKS
CRAIG, CO      PTCLDY    34  21  59 N8        30.17R WCI  27
GRAND JUNCTION CLEAR     44  19  36 N10       30.14R
RIFLE, CO      MOCLDY    42  22  44 NW7       30.13R
MONTROSE, CO   CLOUDY    42  27  55 N8        30.12R
CORTEZ, CO     CLEAR     40  21  46 N8        30.07R WCI  34
COLORADO CITY    N/A     52  21  30 NW9G20    30.19R
PAGE, AZ       CLEAR     59  15  18 N12       30.08R
GRAND CANYON   CLEAR     35  11  36 CALM      30.15R
KINGMAN, AZ    CLEAR     52  15  23 E6        30.09R
FLAGSTAFF, AZ  CLEAR     34  11  38 CALM      30.14R

$$

REGIONAL REPORTS    NEVADA/IDAHO/WYOMING

CITY           SKY/WX    TMP DP  RH WIND       PRES   REMARKS
LAS VEGAS, NV  CLEAR     73  11   9 NE5       30.04R
ELY, NY        CLEAR     39  16  39 NW9       30.23R WCI  33
ELKO, NV       PTCLDY    47  26  44 S6        30.21S
POCATELLO, ID  CLOUDY    45  28  51 S12       30.19R
BURLEY, ID     PTCLDY    42  27  55 S5        30.17R
EVANSTON, WY   CLEAR     32  21  64 SW5       30.24R WCI  27
ROCK SPRINGS,  CLEAR     32  18  56 E7        30.22R WCI  26
KEMMERER, WY     N/A     32  23  69 W6        30.23R WCI  26

$$



USA.gov is the U.S. government's official web portal to all federal, state and local government web resources and services.